Weather Roundup
Issued by NWS

Home | Current Version | Previous Version | Graphics & Text | Print | Product List | Glossary Off
Versions: 1 2 3 4 5 6 7 8 9 10 11 12 13 14 15 16 17 18 19 20 21 22 23 24 25 26 27 28 29 30 31 32 33 34 35 36 37 38 39 40 41 42 43 44 45 46 47 48 49 50

705
NZUS93 KARX 111259
HRRWXR

CURRENT HOURLY OBSERVATIONS ACROSS
MUCH OF THE UPPER MISSISSIPPI VALLEY
NATIONAL WEATHER SERVICE LA CROSSE WI
700 AM CST THU FEB 11 2016


...SOUTHEAST MINNESOTA...


CITY           SKY/WX    TMP DP  RH WIND       PRES   REMARKS
ROCHESTER      CLOUDY     0  -6  76 NW5       30.28R WCI -10
ROCHESTER/MAYO FAIR       2  -3  79 CALM      30.29S
WINONA         PTCLDY    -2  -8  78 CALM      30.36R
AUSTIN         PTCLDY    -2  -6  84 CALM      30.28F
ALBERT LEA       N/A     -4  -8  84 CALM      30.28F
DODGE CENTER   CLOUDY    -6  -9  84 W6        30.27R WCI -18
PRESTON        CLOUDY     1  -5  76 NW5       30.28R WCI  -9
OWATONNA       PTCLDY    -2  -8  78 MISG      30.30R
FARIBAULT        N/A     -8 -11  84 CALM      30.31S
$$

...ELSEWHERE IN MINNESOTA...


CITY           SKY/WX    TMP DP  RH WIND       PRES   REMARKS
MINNEAPOLIS    PTCLDY     4  -6  63 CALM      30.33R
INTNL FALLS    CLOUDY    -9 -13  83 CALM      30.22F
DULUTH         CLOUDY   -10 -15  78 SW6       30.21R WCI -23
RED WING       PTCLDY    -6 -11  77 CALM      30.33R
REDWOOD FALLS  CLOUDY     0  -5  79 CALM      30.30S
MANKATO        CLOUDY     0  -6  78 CALM      30.30S
WORTHINGTON    CLOUDY     9   1  72 SE6       30.26S WCI  -1
FAIRMONT       CLOUDY    -2  -8  78 W5        30.28S WCI -12
$$

...SOUTHWEST WISCONSIN...


CITY           SKY/WX    TMP DP  RH WIND       PRES   REMARKS
LA CROSSE      PTCLDY    -5  -9  83 CALM      30.34R
PRAIRIE DU CHI PTCLDY     0  -6  76 CALM      30.34R
BOSCOBEL       PTCLDY    -5 -10  79 CALM      30.35R
LONE ROCK      NOT AVBL
PLATTEVILLE    CLOUDY     1  -4  77 N3        30.28S
FORT MC COY    PTCLDY   -17 -21  80 CALM      30.32R
VIROQUA        FAIR      -2  -6  83 W3        30.25S
WIS DELLS      PTCLDY    -7 -11  81 CALM      30.27R
$$

...ELSEWHERE IN WISCONSIN...


CITY           SKY/WX    TMP DP  RH WIND       PRES   REMARKS
MILWAUKEE      CLEAR      5  -4  66 NW8       30.27R WCI  -8
MADISON        CLEAR      1  -5  75 CALM      30.29R
GREEN BAY      CLEAR     -4  -8  83 W8        30.25R WCI -19
EAU CLAIRE     NOT AVBL
BLACK RVR FLS  FAIR     -18 -25  70 CALM      30.31R
MEDFORD        CLOUDY   -12 -15  85 N3        30.20S
WAUSAU         CLOUDY    -3  -8  79 NW7       30.21S WCI -16
WIS RAPIDS     CLOUDY   -10 -15  78 SW3       30.27S
MARSHFIELD     CLOUDY   -10 -16  74 NW7       30.22S WCI -25
RICE LAKE      PTCLDY   -12 -16  81 CALM      30.30R
$$

...NORTHEAST IOWA...


CITY           SKY/WX    TMP DP  RH WIND       PRES   REMARKS
WATERLOO       PTCLDY    -3  -8  79 NW5       30.33R WCI -13
DUBUQUE        CLEAR      4  -2  76 N7        30.28R WCI  -8
DECORAH        PTCLDY    -2  -8  78 CALM      30.29R
MASON CITY     PTCLDY    -4  -9  79 NW3       30.31S
CHARLES CITY   CLOUDY    -4  -8  84 NW7       30.32R WCI -18
OELWEIN        CLOUDY     1  -6  71 N6        30.30R WCI -10
$$

...ELSEWHERE IN IOWA...


CITY           SKY/WX    TMP DP  RH WIND       PRES   REMARKS
DES MOINES     PTCLDY     7  -2  66 NE9       30.32R WCI  -7
IOWA CITY      PTCLDY     9   1  70 N6        30.35R WCI  -1
FORT DODGE     PTCLDY     1  -8  66 CALM      30.32R
MARSHALLTOWN   PTCLDY     0  -5  79 N6        30.32R WCI -12
CEDAR RAPIDS   CLOUDY     3   0  87 NW5       30.31R WCI  -6
$$

...NORTHERN ILLINOIS...


CITY           SKY/WX    TMP DP  RH WIND       PRES   REMARKS
CHICAGO-OHARE  PTCLDY     7  -2  66 W8        30.27R WCI  -6
CHICAGO-MIDWAY PTCLDY     9  -3  58 NW9       30.28R WCI  -4
MOLINE         CLOUDY    10   0  63 N6        30.32R WCI   0
ROCKFORD       CLEAR      6  -2  69 NW5       30.32R WCI  -3
PEORIA         CLEAR      9   2  73 N5        30.32R WCI   1
$$

NOTE: "FAIR" INDICATES FEW OR NO CLOUDS BELOW 12,000 FEET WITH NO
SIGNIFICANT WEATHER AND/OR OBSTRUCTIONS TO VISIBILITY. WIND
SPEEDS ARE IN MILES-PER-HOUR.




USA.gov is the U.S. government's official web portal to all federal, state and local government web resources and services.